,,PA_Meas_PMT16A,,PR_Meas_QMR101_102,,RH_Meas_QMH101,,SR_Meas_QMS101,,TA_Meas_QMH101,,GenWind,,GenWind,
time,status,PA,status,PR,status,RH,status,SR,status,TA,status,DirAvg,status,SpdAvg,
2014-09-20, 00:00:04,VALID,918.466,VALID,0,VALID,97.0842,VALID,0,VALID,20.795,VALID,13,VALID,0,
2014-09-20, 00:01:04,VALID,918.461,VALID,0,VALID,97.0537,VALID,0,VALID,20.8145,VALID,13,VALID,0,
2014-09-20, 00:02:04,VALID,918.452,VALID,0,VALID,97.0766,VALID,0,VALID,20.795,VALID,360,VALID,0,
2014-09-20, 00:03:04,VALID,918.435,VALID,0,VALID,97.069,VALID,0,VALID,20.8145,VALID,16,VALID,0,
2014-09-20, 00:04:04,VALID,918.467,VALID,0,VALID,97.0842,VALID,0,VALID,20.795,VALID,7,VALID,0,
2014-09-20, 00:05:04,VALID,918.466,VALID,0,VALID,97.0842,VALID,0,VALID,20.8145,VALID,11,VALID,0,
2014-09-20, 00:06:04,VALID,918.446,VALID,0,VALID,97.0766,VALID,0,VALID,20.8145,VALID,17,VALID,0,
2014-09-20, 00:07:04,VALID,918.445,VALID,0,VALID,97.0842,VALID,0,VALID,20.7755,VALID,33,VALID,0,
2014-09-20, 00:08:04,VALID,918.432,VALID,0,VALID,97.0994,VALID,0.107441,VALID,20.7755,VALID,33,VALID,0,
2014-09-20, 00:09:04,VALID,918.429,VALID,0,VALID,97.1147,VALID,0,VALID,20.7365,VALID,33,VALID,0,
2014-09-20, 00:10:04,VALID,918.432,VALID,0,VALID,97.1071,VALID,0,VALID,20.7365,VALID,33,VALID,0,
2014-09-20, 00:11:04,VALID,918.38,VALID,0,VALID,97.0994,VALID,0,VALID,20.7365,VALID,33,VALID,0,
2014-09-20, 00:12:04,VALID,918.376,VALID,0,VALID,97.1071,VALID,0,VALID,20.756,VALID,25,VALID,0,
2014-09-20, 00:13:04,VALID,918.356,VALID,0,VALID,97.1147,VALID,0,VALID,20.7365,VALID,13,VALID,0,
2014-09-20, 00:14:04,VALID,918.341,VALID,0,VALID,97.0918,VALID,0.107441,VALID,20.7365,VALID,350,VALID,0,
2014-09-20, 00:15:04,VALID,918.319,VALID,0,VALID,97.1223,VALID,0,VALID,20.6959,VALID,356,VALID,0,
2014-09-20, 00:16:04,VALID,918.266,VALID,0,VALID,97.1223,VALID,0,VALID,20.717,VALID,24,VALID,0,
2014-09-20, 00:17:04,VALID,918.27,VALID,0,VALID,97.1223,VALID,0,VALID,20.717,VALID,29,VALID,0,
2014-09-20, 00:18:04,VALID,918.244,VALID,0,VALID,97.1147,VALID,0,VALID,20.6975,VALID,18,VALID,0,
2014-09-20, 00:19:04,VALID,918.223,VALID,0,VALID,97.1147,VALID,0,VALID,20.6975,VALID,357,VALID,0,
2014-09-20, 00:20:04,VALID,918.233,VALID,0,VALID,97.1299,VALID,0,VALID,20.717,VALID,357,VALID,0,
2014-09-20, 00:21:04,VALID,918.201,VALID,0,VALID,97.1452,VALID,0,VALID,20.7365,VALID,357,VALID,0,
2014-09-20, 00:22:04,VALID,918.174,VALID,0,VALID,97.1376,VALID,0,VALID,20.756,VALID,357,VALID,0,
2014-09-20, 00:23:04,VALID,918.119,VALID,0,VALID,97.1299,VALID,0,VALID,20.7349,VALID,357,VALID,0,
2014-09-20, 00:24:04,VALID,918.108,VALID,0,VALID,97.1376,VALID,0,VALID,20.7365,VALID,357,VALID,0,
2014-09-20, 00:25:04,VALID,918.034,VALID,0,VALID,97.1376,VALID,0,VALID,20.6975,VALID,1,VALID,0,
2014-09-20, 00:26:04,VALID,918.007,VALID,0,VALID,97.1528,VALID,0,VALID,20.6975,VALID,1,VALID,0,
2014-09-20, 00:27:04,VALID,917.975,VALID,0,VALID,97.1528,VALID,0,VALID,20.678,VALID,1,VALID,0,
2014-09-20, 00:28:04,VALID,917.963,VALID,0,VALID,97.1376,VALID,0,VALID,20.6585,VALID,1,VALID,0,
2014-09-20, 00:29:04,VALID,917.915,VALID,0,VALID,97.1452,VALID,0,VALID,20.639,VALID,1,VALID,0,
2014-09-20, 00:30:04,VALID,917.881,VALID,0,VALID,97.1528,VALID,0,VALID,20.639,VALID,1,VALID,0,
2014-09-20, 00:31:04,VALID,917.85,VALID,0,VALID,97.1376,VALID,0,VALID,20.678,VALID,1,VALID,0,
2014-09-20, 00:32:04,VALID,917.846,VALID,0,VALID,97.1376,VALID,0,VALID,20.639,VALID,6,VALID,0,
2014-09-20, 00:33:04,VALID,917.829,VALID,0,VALID,97.1299,VALID,0,VALID,20.6585,VALID,13,VALID,0,
2014-09-20, 00:34:04,VALID,917.792,VALID,0,VALID,97.1528,VALID,0,VALID,20.639,VALID,352,VALID,0,
2014-09-20, 00:35:04,VALID,917.807,VALID,0,VALID,97.1376,VALID,0,VALID,20.678,VALID,352,VALID,0,
2014-09-20, 00:36:04,VALID,917.793,VALID,0,VALID,97.1452,VALID,0,VALID,20.678,VALID,351,VALID,0,
2014-09-20, 00:37:04,VALID,917.751,VALID,0,VALID,97.1452,VALID,0,VALID,20.6585,VALID,355,VALID,0,
2014-09-20, 00:38:04,VALID,917.779,VALID,0,VALID,97.1604,VALID,0,VALID,20.639,VALID,1,VALID,0,
2014-09-20, 00:39:04,VALID,917.743,VALID,0,VALID,97.1604,VALID,0,VALID,20.639,VALID,1,VALID,0,
2014-09-20, 00:40:04,VALID,917.732,VALID,0,VALID,97.1604,VALID,0,VALID,20.639,VALID,347,VALID,0,
2014-09-20, 00:41:04,VALID,917.73,VALID,0,VALID,97.1528,VALID,0,VALID,20.6585,VALID,348,VALID,0,
2014-09-20, 00:42:04,VALID,917.694,VALID,0,VALID,97.1452,VALID,0,VALID,20.678,VALID,348,VALID,0,
2014-09-20, 00:43:04,VALID,917.67,VALID,0,VALID,97.1528,VALID,0,VALID,20.678,VALID,348,VALID,0,
2014-09-20, 00:44:04,VALID,917.649,VALID,0,VALID,97.1604,VALID,0,VALID,20.6975,INVALID,360,VALID,0,
2014-09-20, 00:45:04,VALID,917.637,VALID,0,VALID,97.1452,VALID,0,VALID,20.7365,VALID,348,VALID,0,
2014-09-20, 00:46:04,VALID,917.6,VALID,0,VALID,97.1528,VALID,0,VALID,20.756,VALID,348,VALID,0,
2014-09-20, 00:47:04,VALID,917.628,VALID,0,VALID,97.1299,VALID,0,VALID,20.756,VALID,348,VALID,0,
2014-09-20, 00:48:04,VALID,917.631,VALID,0,VALID,97.1299,VALID,0,VALID,20.7755,VALID,4,VALID,0,
2014-09-20, 00:49:04,VALID,917.618,VALID,0,VALID,97.1604,VALID,0,VALID,20.8145,VALID,27,VALID,0,
2014-09-20, 00:50:04,VALID,917.615,VALID,0,VALID,97.1376,VALID,0,VALID,20.8145,VALID,30,VALID,0,
2014-09-20, 00:51:04,VALID,917.588,VALID,0,VALID,97.1604,VALID,0,VALID,20.834,VALID,30,VALID,0,
2014-09-20, 00:52:04,VALID,917.604,VALID,0,VALID,97.1299,VALID,0,VALID,20.8535,VALID,346,VALID,0,
2014-09-20, 00:53:05,VALID,917.6,VALID,0,VALID,97.1299,VALID,0,VALID,20.8145,VALID,346,VALID,0,
2014-09-20, 00:54:05,VALID,917.611,VALID,0,VALID,97.1452,VALID,0,VALID,20.795,VALID,341,VALID,0,
2014-09-20, 00:55:05,VALID,917.627,VALID,0,VALID,97.1528,VALID,0,VALID,20.795,INVALID,360,VALID,0,
2014-09-20, 00:56:05,VALID,917.647,VALID,0,VALID,97.1452,VALID,0,VALID,20.7755,VALID,21,VALID,0,
2014-09-20, 00:57:05,VALID,917.627,VALID,0,VALID,97.1604,VALID,0,VALID,20.7755,VALID,20,VALID,0,
2014-09-20, 00:58:05,VALID,917.581,VALID,0,VALID,97.1528,VALID,0,VALID,20.7755,VALID,16,VALID,0,
2014-09-20, 00:59:05,VALID,917.582,VALID,0,VALID,97.1528,VALID,0,VALID,20.756,VALID,16,VALID,0,
2014-09-20, 01:00:05,VALID,917.578,VALID,0,VALID,97.1452,VALID,0,VALID,20.7755,VALID,16,VALID,0,
2014-09-20, 01:01:05,VALID,917.525,VALID,0,VALID,97.1452,VALID,0,VALID,20.795,VALID,17,VALID,0,
2014-09-20, 01:02:05,VALID,917.497,VALID,0,VALID,97.1376,VALID,0,VALID,20.8145,VALID,16,VALID,0,
2014-09-20, 01:03:05,VALID,917.466,VALID,0,VALID,97.1528,VALID,0,VALID,20.8145,VALID,17,VALID,0,
2014-09-20, 01:04:05,VALID,917.41,VALID,0,VALID,97.1528,VALID,0,VALID,20.8145,VALID,17,VALID,0,
2014-09-20, 01:05:05,VALID,917.361,VALID,0,VALID,97.1376,VALID,0,VALID,20.795,VALID,17,VALID,0,
2014-09-20, 01:06:05,VALID,917.3,VALID,0,VALID,97.1452,VALID,0,VALID,20.7755,VALID,17,VALID,0,
2014-09-20, 01:07:05,VALID,917.224,VALID,0,VALID,97.1681,VALID,0,VALID,20.6975,VALID,21,VALID,0,
2014-09-20, 01:08:05,VALID,917.201,VALID,0,VALID,97.1681,VALID,0,VALID,20.678,VALID,23,VALID,0,
2014-09-20, 01:09:05,VALID,917.143,VALID,0,VALID,97.1757,VALID,0,VALID,20.6795,VALID,24,VALID,0,
2014-09-20, 01:10:05,VALID,917.123,VALID,0,VALID,97.1757,VALID,0,VALID,20.6585,VALID,23,VALID,0,
2014-09-20, 01:11:05,VALID,917.135,VALID,0,VALID,97.1681,VALID,0,VALID,20.66,VALID,23,VALID,0,
2014-09-20, 01:12:05,VALID,917.167,VALID,0,VALID,97.1681,VALID,0,VALID,20.66,VALID,24,VALID,0,
2014-09-20, 01:13:05,VALID,917.16,VALID,0,VALID,97.1681,VALID,0,VALID,20.6194,VALID,24,VALID,0,
2014-09-20, 01:14:05,VALID,917.175,VALID,0,VALID,97.1681,VALID,0,VALID,20.621,VALID,23,VALID,0,
2014-09-20, 01:15:05,VALID,917.183,VALID,0,VALID,97.1757,VALID,0,VALID,20.5999,VALID,24,VALID,0,
2014-09-20, 01:16:05,VALID,917.189,VALID,0,VALID,97.1833,VALID,0,VALID,20.5999,VALID,23,VALID,0,
2014-09-20, 01:17:05,VALID,917.157,VALID,0,VALID,97.1376,VALID,0,VALID,20.5999,VALID,23,VALID,0,
2014-09-20, 01:18:05,VALID,917.173,VALID,0,VALID,97.1681,VALID,0,VALID,20.5999,VALID,24,VALID,0,
2014-09-20, 01:19:05,VALID,917.204,VALID,0,VALID,97.1528,VALID,0,VALID,20.6194,VALID,24,VALID,0,
2014-09-20, 01:20:05,VALID,917.205,VALID,0,VALID,97.1528,VALID,0,VALID,20.66,VALID,24,VALID,0,
2014-09-20, 01:21:05,VALID,917.211,VALID,0,VALID,97.1604,VALID,0,VALID,20.6179,VALID,23,VALID,0,
2014-09-20, 18:41:04,VALID,918.551,VALID,0,VALID,96.3066,VALID,0,VALID,19.7223,VALID,139,VALID,0,
2014-09-20, 18:42:04,VALID,918.535,VALID,0,VALID,96.36,VALID,0,VALID,19.7223,VALID,140,VALID,0,
2014-09-20, 18:43:04,VALID,918.558,VALID,0,VALID,96.4057,VALID,0,VALID,19.7028,VALID,141,VALID,0,
2014-09-20, 18:44:04,VALID,918.585,VALID,0,VALID,96.4591,VALID,0,VALID,19.7028,VALID,141,VALID,0,
2014-09-20, 18:45:04,VALID,918.592,VALID,0,VALID,96.4819,VALID,0,VALID,19.6623,VALID,141,VALID,0,
2014-09-20, 18:46:04,VALID,918.598,VALID,0,VALID,96.5124,VALID,0,VALID,19.6638,VALID,141,VALID,0,
2014-09-20, 18:47:04,VALID,918.597,VALID,0,VALID,96.5429,VALID,0,VALID,19.6443,VALID,141,VALID,0,
2014-09-20, 18:48:04,VALID,918.603,VALID,0,VALID,96.5887,VALID,0,VALID,19.6248,VALID,141,VALID,0,
2014-09-20, 18:49:04,VALID,918.627,VALID,0,VALID,96.6268,VALID,0,VALID,19.6248,VALID,140,VALID,0,
2014-09-20, 18:50:04,VALID,918.607,VALID,0,VALID,96.6192,VALID,0,VALID,19.6053,VALID,141,VALID,0,
2014-09-20, 18:51:04,VALID,918.646,VALID,0,VALID,96.6725,VALID,0,VALID,19.5858,VALID,140,VALID,0,
2014-09-20, 18:52:04,VALID,918.644,VALID,0,VALID,96.642,VALID,0,VALID,19.5858,VALID,140,VALID,0,
2014-09-20, 18:53:04,VALID,918.603,VALID,0,VALID,96.6802,VALID,0,VALID,19.5663,VALID,141,VALID,0,
2014-09-20, 18:54:04,VALID,918.644,VALID,0,VALID,96.6878,VALID,0,VALID,19.5663,VALID,141,VALID,0,
2014-09-20, 18:55:04,VALID,918.651,VALID,0,VALID,96.7107,VALID,0,VALID,19.5663,VALID,140,VALID,0,
2014-09-20, 18:56:04,VALID,918.656,VALID,0,VALID,96.7183,VALID,0,VALID,19.5663,VALID,140,VALID,0,
2014-09-20, 18:57:04,VALID,918.656,VALID,0,VALID,96.7411,VALID,0,VALID,19.5663,VALID,141,VALID,0,
2014-09-20, 18:58:04,VALID,918.637,VALID,0,VALID,96.7335,VALID,0,VALID,19.5468,VALID,140,VALID,0,
2014-09-20, 18:59:04,VALID,918.677,VALID,0,VALID,96.7335,VALID,0,VALID,19.5468,VALID,140,VALID,0,
2014-09-20, 19:00:04,VALID,918.643,VALID,0,VALID,96.7411,VALID,0,VALID,19.5273,VALID,140,VALID,0,
2014-09-20, 19:01:04,VALID,918.653,VALID,0,VALID,96.764,VALID,0,VALID,19.5078,VALID,140,VALID,0,
2014-09-20, 19:02:04,VALID,918.665,VALID,0,VALID,96.7335,VALID,0,VALID,19.4883,VALID,140,VALID,0,
2014-09-20, 19:03:04,VALID,918.659,VALID,0,VALID,96.7411,VALID,0,VALID,19.4883,VALID,140,VALID,0,
2014-09-20, 19:04:04,VALID,918.66,VALID,0,VALID,96.7793,VALID,0,VALID,19.4688,VALID,140,VALID,0,
2014-09-20, 19:05:04,VALID,918.699,VALID,0,VALID,96.7716,VALID,0,VALID,19.4883,VALID,140,VALID,0,
2014-09-20, 19:06:04,VALID,918.703,VALID,0,VALID,96.7869,VALID,0,VALID,19.5078,VALID,140,VALID,0,
2014-09-20, 19:07:04,VALID,918.7,VALID,0,VALID,96.764,VALID,0,VALID,19.5078,VALID,140,VALID,0,
2014-09-20, 19:08:04,VALID,918.737,VALID,0,VALID,96.764,VALID,0,VALID,19.5078,VALID,140,VALID,0,
2014-09-20, 19:09:04,VALID,918.756,VALID,0,VALID,96.7335,VALID,0,VALID,19.5273,VALID,140,VALID,0,
2014-09-20, 19:10:04,VALID,918.745,VALID,0,VALID,96.7259,VALID,0,VALID,19.5483,VALID,140,VALID,0,
2014-09-20, 19:11:04,VALID,918.77,VALID,0,VALID,96.7183,VALID,0,VALID,19.5273,VALID,140,VALID,0,
2014-09-20, 19:12:04,VALID,918.807,VALID,0,VALID,96.7259,VALID,0,VALID,19.5288,VALID,140,VALID,0,
2014-09-20, 19:13:04,VALID,918.819,VALID,0,VALID,96.7107,VALID,0,VALID,19.5273,VALID,140,VALID,0,
2014-09-20, 19:14:04,VALID,918.856,VALID,0,VALID,96.6878,VALID,0,VALID,19.5288,VALID,140,VALID,0,
2014-09-20, 19:15:04,VALID,918.837,VALID,0,VALID,96.6802,VALID,0,VALID,19.5468,VALID,140,VALID,0,
2014-09-20, 19:16:04,VALID,918.86,VALID,0,VALID,96.7183,VALID,0,VALID,19.5273,VALID,140,VALID,0,
2014-09-20, 19:17:04,VALID,918.887,VALID,0,VALID,96.7183,VALID,0,VALID,19.5663,VALID,140,VALID,0,
2014-09-20, 19:18:04,VALID,918.916,VALID,0,VALID,96.7564,VALID,0,VALID,19.5468,VALID,140,VALID,0,
2014-09-20, 19:19:04,VALID,918.922,VALID,0,VALID,96.7716,VALID,0,VALID,19.5468,VALID,140,VALID,0,
2014-09-20, 19:20:04,VALID,918.936,VALID,0,VALID,96.7411,VALID,0,VALID,19.5093,VALID,140,VALID,0,
2014-09-20, 19:21:04,VALID,918.941,VALID,0,VALID,96.7335,VALID,0,VALID,19.4703,VALID,140,VALID,0,
2014-09-20, 19:22:04,VALID,918.933,VALID,0,VALID,96.703,VALID,0,VALID,19.4313,VALID,140,VALID,0,
2014-09-20, 19:23:04,VALID,918.941,VALID,0,VALID,96.703,VALID,0,VALID,19.3908,VALID,140,VALID,0,
2014-09-20, 19:24:04,VALID,918.914,VALID,0,VALID,96.7183,VALID,0,VALID,19.3713,VALID,140,VALID,0,
2014-09-20, 19:25:04,VALID,918.944,VALID,0,VALID,96.7107,VALID,0,VALID,19.3323,VALID,140,VALID,0,
2014-09-20, 19:26:04,VALID,918.956,VALID,0,VALID,96.7183,VALID,0,VALID,19.3533,VALID,140,VALID,0,
2014-09-20, 19:27:04,VALID,918.98,VALID,0,VALID,96.7183,VALID,0,VALID,19.3338,VALID,140,VALID,0,
2014-09-20, 19:28:04,VALID,919.005,VALID,0,VALID,96.7183,VALID,0,VALID,19.3143,VALID,140,VALID,0,
2014-09-20, 19:29:04,VALID,918.996,VALID,0,VALID,96.703,VALID,0,VALID,19.2738,VALID,140,VALID,0,
2014-09-20, 19:30:04,VALID,919.02,VALID,0,VALID,96.7411,VALID,0,VALID,19.2543,VALID,140,VALID,0,
2014-09-20, 19:31:04,VALID,919.044,VALID,0,VALID,96.7259,VALID,0,VALID,19.2363,VALID,140,VALID,0,
2014-09-20, 19:32:04,VALID,919.05,VALID,0,VALID,96.764,VALID,0,VALID,19.2153,VALID,140,VALID,0,
2014-09-20, 19:33:04,VALID,919.07,VALID,0,VALID,96.7488,VALID,0.107441,VALID,19.2153,VALID,140,VALID,0,
2014-09-20, 19:34:04,VALID,919.031,VALID,0,VALID,96.7716,VALID,0,VALID,19.2153,VALID,140,VALID,0,
2014-09-20, 19:35:04,VALID,919.083,VALID,0,VALID,96.7716,VALID,0,VALID,19.2153,VALID,140,VALID,0,
2014-09-20, 19:36:04,VALID,919.077,VALID,0,VALID,96.7716,VALID,0,VALID,19.2363,VALID,140,VALID,0,
2014-09-20, 19:37:04,VALID,919.074,VALID,0,VALID,96.7793,VALID,0,VALID,19.2363,VALID,140,VALID,0,
2014-09-20, 19:38:04,VALID,919.106,VALID,0,VALID,96.7716,VALID,0,VALID,19.2363,VALID,140,VALID,0,
2014-09-20, 19:39:04,VALID,919.113,VALID,0,VALID,96.764,VALID,0,VALID,19.2168,VALID,140,VALID,0,
2014-09-20, 19:40:04,VALID,919.114,VALID,0,VALID,96.764,VALID,0,VALID,19.1973,VALID,141,VALID,0,
2014-09-20, 19:41:04,VALID,919.134,VALID,0,VALID,96.7793,VALID,0,VALID,19.1973,VALID,140,VALID,0,
2014-09-20, 19:42:04,VALID,919.151,VALID,0,VALID,96.7716,VALID,0,VALID,19.2168,VALID,140,VALID,0,
2014-09-20, 19:43:04,VALID,919.154,VALID,0,VALID,96.7945,VALID,0,VALID,19.1958,VALID,140,VALID,0,
2014-09-20, 19:44:04,VALID,919.198,VALID,0,VALID,96.8021,VALID,0,VALID,19.2168,VALID,140,VALID,0,
2014-09-20, 19:45:04,VALID,919.211,VALID,0,VALID,96.8098,VALID,0,VALID,19.2168,VALID,140,VALID,0,
2014-09-20, 19:46:04,VALID,919.227,VALID,0,VALID,96.8098,VALID,0,VALID,19.1973,VALID,140,VALID,0,
2014-09-20, 19:47:04,VALID,919.244,VALID,0,VALID,96.8403,VALID,0,VALID,19.2168,VALID,140,VALID,0,
2014-09-20, 19:48:04,VALID,919.265,VALID,0,VALID,96.8326,VALID,0,VALID,19.2168,VALID,140,VALID,0,
2014-09-20, 19:49:04,VALID,919.292,VALID,0,VALID,96.8479,VALID,0,VALID,19.2168,VALID,140,VALID,0,
2014-09-20, 19:50:04,VALID,919.306,VALID,0,VALID,96.8555,VALID,0,VALID,19.2363,VALID,140,VALID,0,
2014-09-20, 19:51:04,VALID,919.289,VALID,0,VALID,96.8555,VALID,0,VALID,19.2153,VALID,140,VALID,0,
2014-09-20, 19:52:04,VALID,919.355,VALID,0,VALID,96.886,VALID,0,VALID,19.2558,VALID,140,VALID,0,
2014-09-20, 19:53:04,VALID,919.343,VALID,0,VALID,96.9089,VALID,0,VALID,19.2153,VALID,140,VALID,0,
2014-09-20, 19:54:04,VALID,919.375,VALID,0,VALID,96.9089,VALID,0,VALID,19.2363,VALID,140,VALID,0,
2014-09-20, 19:55:04,VALID,919.385,VALID,0,VALID,96.9241,VALID,0,VALID,19.2168,VALID,140,VALID,0,
2014-09-20, 19:56:04,VALID,919.419,VALID,0,VALID,96.947,VALID,0,VALID,19.2543,VALID,140,VALID,0,
2014-09-20, 19:57:04,VALID,919.438,VALID,0,VALID,96.9546,VALID,0.107441,VALID,19.2153,VALID,140,VALID,0,
2014-09-20, 19:58:04,VALID,919.458,VALID,0,VALID,96.9851,VALID,0.107441,VALID,19.2153,VALID,140,VALID,0,
2014-09-20, 19:59:04,VALID,919.472,VALID,0,VALID,97.0003,VALID,0.107441,VALID,19.2153,VALID,140,VALID,0,
2014-09-20, 20:00:04,VALID,919.505,VALID,0,VALID,97.0156,VALID,0,VALID,19.1958,VALID,140,VALID,0,
2014-09-20, 20:01:04,VALID,919.515,VALID,0,VALID,97.008,VALID,0,VALID,19.1958,VALID,140,VALID,0,
2014-09-20, 20:02:04,VALID,919.535,VALID,0,VALID,97.0385,VALID,0.107441,VALID,19.1958,VALID,140,VALID,0,
2014-09-20, 20:03:04,VALID,919.55,VALID,0,VALID,97.0308,VALID,0,VALID,19.1958,VALID,140,VALID,0,
2014-09-20, 20:04:04,VALID,919.589,VALID,0,VALID,97.0766,VALID,0.107441,VALID,19.2153,VALID,140,VALID,0,
2014-09-20, 20:05:04,VALID,919.604,VALID,0,VALID,97.069,VALID,0,VALID,19.1763,VALID,140,VALID,0,
2014-09-20, 20:06:04,VALID,919.616,VALID,0,VALID,97.0994,VALID,0,VALID,19.1763,VALID,140,VALID,0,
2014-09-20, 20:07:04,VALID,919.64,VALID,0,VALID,97.0842,VALID,0.107441,VALID,19.1763,VALID,140,VALID,0,
2014-09-20, 20:08:04,VALID,919.645,VALID,0,VALID,97.0918,VALID,0,VALID,19.1958,VALID,140,VALID,0,
2014-09-20, 20:09:04,VALID,919.648,VALID,0,VALID,97.1071,VALID,0.107441,VALID,19.1568,VALID,140,VALID,0,
2014-09-20, 20:10:04,VALID,919.645,VALID,0,VALID,97.0918,VALID,0,VALID,19.1568,VALID,140,VALID,0,
2014-09-20, 20:11:04,VALID,919.658,VALID,0,VALID,97.0918,VALID,0,VALID,19.1763,VALID,140,VALID,0,
2014-09-20, 20:12:04,VALID,919.681,VALID,0,VALID,97.1071,VALID,0,VALID,19.1958,VALID,140,VALID,0,
2014-09-20, 20:13:04,VALID,919.707,VALID,0,VALID,97.1147,VALID,0,VALID,19.2168,VALID,140,VALID,0,
2014-09-20, 20:14:04,VALID,919.722,VALID,0,VALID,97.1071,VALID,0.107441,VALID,19.1958,VALID,140,VALID,0,
2014-09-20, 20:15:04,VALID,919.726,VALID,0,VALID,97.1223,VALID,0,VALID,19.1958,VALID,140,VALID,0,
2014-09-20, 20:16:04,VALID,919.734,VALID,0,VALID,97.1299,VALID,0,VALID,19.1958,VALID,140,VALID,0,
2014-09-20, 20:17:04,VALID,919.766,VALID,0,VALID,97.1299,VALID,0,VALID,19.1958,VALID,140,VALID,0,
2014-09-20, 20:18:04,VALID,919.779,VALID,0,VALID,97.1376,VALID,0,VALID,19.1958,VALID,140,VALID,0,
2014-09-20, 20:19:04,VALID,919.774,VALID,0,VALID,97.0994,VALID,0,VALID,19.1763,VALID,140,VALID,0,
2014-09-20, 20:20:04,VALID,919.768,VALID,0,VALID,97.1071,VALID,0,VALID,19.1763,VALID,140,VALID,0,
2014-09-20, 20:21:04,VALID,919.794,VALID,0,VALID,97.0766,VALID,0,VALID,19.1763,VALID,139,VALID,0,
2014-09-20, 20:22:04,VALID,919.788,VALID,0,VALID,97.0766,VALID,0,VALID,19.1568,VALID,137,VALID,0,
2014-09-20, 20:23:04,VALID,919.828,VALID,0,VALID,97.0385,VALID,0,VALID,19.1568,VALID,137,VALID,0,
2014-09-20, 20:24:04,VALID,919.833,VALID,0,VALID,97.0461,VALID,0,VALID,19.1568,VALID,138,VALID,0,
2014-09-20, 20:25:04,VALID,919.867,VALID,0,VALID,97.0385,VALID,0,VALID,19.1763,VALID,136,VALID,0,
2014-09-20, 20:26:04,VALID,919.866,VALID,0,VALID,97.0613,VALID,0,VALID,19.1568,VALID,137,VALID,0,
2014-09-20, 20:27:04,VALID,919.882,VALID,0,VALID,97.0308,VALID,0,VALID,19.1373,VALID,141,VALID,0,
2014-09-20, 20:28:04,VALID,919.894,VALID,0,VALID,97.0308,VALID,0,VALID,19.1373,VALID,139,VALID,0,
2014-09-20, 20:29:04,VALID,919.901,VALID,0,VALID,97.0461,VALID,0,VALID,19.1568,VALID,138,VALID,0,
2014-09-20, 20:30:04,VALID,919.924,VALID,0,VALID,97.0461,VALID,0,VALID,19.1373,VALID,138,VALID,0,
2014-09-20, 20:31:04,VALID,919.923,VALID,0,VALID,97.0232,VALID,0.107441,VALID,19.1373,VALID,138,VALID,0,
2014-09-20, 20:32:04,VALID,919.934,VALID,0,VALID,97.0308,VALID,0.107441,VALID,19.1373,VALID,138,VALID,0,
2014-09-20, 20:33:04,VALID,919.951,VALID,0,VALID,97.0308,VALID,0.107441,VALID,19.1178,VALID,138,VALID,0,
2014-09-20, 20:34:04,VALID,919.946,VALID,0,VALID,97.0308,VALID,0,VALID,19.0983,VALID,138,VALID,0,
2014-09-20, 20:35:04,VALID,919.953,VALID,0,VALID,97.0385,VALID,0,VALID,19.0983,VALID,137,VALID,0,
2014-09-20, 20:36:04,VALID,919.986,VALID,0,VALID,97.0308,VALID,0,VALID,19.0983,VALID,138,VALID,0,
2014-09-20, 20:37:04,VALID,920.001,VALID,0,VALID,97.0232,VALID,0,VALID,19.0983,VALID,138,VALID,0,
2014-09-20, 20:38:04,VALID,919.977,VALID,0,VALID,97.0308,VALID,0,VALID,19.0788,VALID,119,VALID,0,
2014-09-20, 20:39:04,VALID,920.012,VALID,0,VALID,97.008,VALID,0,VALID,19.0593,VALID,102,VALID,0,
2014-09-20, 20:40:04,VALID,920.003,VALID,0,VALID,97.0003,VALID,0,VALID,19.0593,VALID,102,VALID,0,
2014-09-20, 20:41:04,VALID,919.992,VALID,0,VALID,97.008,VALID,0,VALID,19.0413,VALID,100,VALID,0.239844,
2014-09-20, 20:42:04,VALID,920.009,VALID,0,VALID,96.9927,VALID,0,VALID,19.0218,VALID,100,VALID,0,
2014-09-20, 20:43:04,VALID,919.976,VALID,0,VALID,96.9698,VALID,0,VALID,19.0218,VALID,100,VALID,0,
2014-09-20, 20:44:04,VALID,919.981,VALID,0,VALID,96.9546,VALID,0,VALID,19.0023,VALID,100,VALID,0,
2014-09-20, 20:45:04,VALID,920.02,VALID,0,VALID,96.9546,VALID,0,VALID,19.0023,VALID,100,VALID,0,
2014-09-20, 20:46:04,VALID,920.039,VALID,0,VALID,96.9317,VALID,0,VALID,19.0232,VALID,100,VALID,0,
2014-09-20, 20:47:04,VALID,920.017,VALID,0,VALID,96.9546,VALID,0,VALID,19.0023,VALID,100,VALID,0,
2014-09-20, 20:48:04,VALID,920.032,VALID,0,VALID,96.9546,VALID,0,VALID,19.0023,VALID,100,VALID,0,
2014-09-20, 20:49:04,VALID,920.067,VALID,0,VALID,96.9394,VALID,0,VALID,19.0023,VALID,110,VALID,0,
2014-09-20, 20:50:04,VALID,920.062,VALID,0,VALID,96.9317,VALID,0,VALID,19.0023,VALID,118,VALID,0,
2014-09-20, 20:51:04,VALID,920.03,VALID,0,VALID,96.9394,VALID,0,VALID,18.9828,VALID,129,VALID,0,
2014-09-20, 20:52:04,VALID,920.029,VALID,0,VALID,96.9622,VALID,0,VALID,19.0023,VALID,129,VALID,0,
2014-09-20, 20:53:04,VALID,920.031,VALID,0,VALID,96.9317,VALID,0,VALID,19.0023,VALID,129,VALID,0,
2014-09-20, 20:54:04,VALID,920.05,VALID,0,VALID,96.947,VALID,0,VALID,19.0427,VALID,129,VALID,0,
2014-09-20, 20:55:04,VALID,920.036,VALID,0,VALID,96.9546,VALID,0,VALID,19.0427,VALID,129,VALID,0,
2014-09-20, 20:56:04,VALID,920.036,VALID,0,VALID,96.9622,VALID,0,VALID,19.0218,VALID,129,VALID,0,
2014-09-20, 20:57:04,VALID,920.035,VALID,0,VALID,96.9546,VALID,0,VALID,19.0413,VALID,129,VALID,0,
2014-09-20, 20:58:04,VALID,920.016,VALID,0,VALID,96.9698,VALID,0,VALID,19.0008,VALID,127,VALID,0,
2014-09-20, 20:59:04,VALID,919.995,VALID,0,VALID,96.9622,VALID,0,VALID,19.0008,VALID,122,VALID,0,
2014-09-20, 21:00:04,VALID,920.015,VALID,0,VALID,96.9622,VALID,0,VALID,19.0008,VALID,121,VALID,0,
2014-09-20, 21:01:04,VALID,920.017,VALID,0,VALID,96.9394,VALID,0,VALID,19.0203,VALID,121,VALID,0,
2014-09-20, 21:02:04,VALID,920.021,VALID,0,VALID,96.947,VALID,0,VALID,19.0008,VALID,121,VALID,0,
2014-09-20, 21:03:04,VALID,920.052,VALID,0,VALID,96.9698,VALID,0,VALID,19.0008,VALID,121,VALID,0,
2014-09-20, 21:04:04,VALID,920.034,VALID,0,VALID,96.9698,VALID,0,VALID,19.0203,VALID,121,VALID,0,
2014-09-20, 21:05:04,VALID,920.045,VALID,0,VALID,96.9851,VALID,0,VALID,19.0203,VALID,121,VALID,0,
2014-09-20, 21:06:04,VALID,920.068,VALID,0,VALID,96.9851,VALID,0,VALID,19.0203,VALID,121,VALID,0,
2014-09-20, 21:07:04,VALID,920.058,VALID,0,VALID,96.9851,VALID,0.107441,VALID,19.0203,VALID,121,VALID,0,
2014-09-20, 21:08:04,VALID,920.052,VALID,0,VALID,96.9927,VALID,0,VALID,19.0398,VALID,121,VALID,0,
2014-09-20, 21:09:04,VALID,920.069,VALID,0,VALID,97.0003,VALID,0,VALID,19.0203,VALID,121,VALID,0,
2014-09-20, 21:10:04,VALID,920.056,VALID,0,VALID,96.9775,VALID,0,VALID,18.9814,VALID,121,VALID,0,
2014-09-20, 21:11:04,VALID,920.049,VALID,0,VALID,96.9775,VALID,0,VALID,18.9814,VALID,119,VALID,0,
2014-09-20, 21:12:04,VALID,920.089,VALID,0,VALID,96.9698,VALID,0,VALID,18.9814,VALID,119,VALID,0,
2014-09-20, 21:13:04,VALID,920.079,VALID,0,VALID,96.947,VALID,0.107441,VALID,19.0023,VALID,119,VALID,0,
2014-09-20, 21:14:04,VALID,920.089,VALID,0,VALID,96.9089,VALID,0,VALID,19.0008,VALID,119,VALID,0,
2014-09-20, 21:15:04,VALID,920.146,VALID,0,VALID,96.8784,VALID,0,VALID,19.0008,VALID,106,VALID,0,
2014-09-20, 21:16:04,VALID,920.142,VALID,0,VALID,96.8403,VALID,0.107441,VALID,19.0203,VALID,101,VALID,0,
2014-09-20, 21:17:04,VALID,920.14,VALID,0,VALID,96.8174,VALID,0,VALID,19.0413,VALID,101,VALID,0,
2014-09-20, 21:18:04,VALID,920.173,VALID,0,VALID,96.7564,VALID,0,VALID,19.0203,VALID,103,VALID,0,